^^
Your Local Weather - Clay, NY Station Historical Data
Daily Summary for February 24, 2018 Units:  Metric    English   Both
« Previous Day
Next Day »
Daily Weekly Monthly Yearly Custom
  High: Low: Average:
Temperature: 6.7 °C -1.2 °C 3.6 °C
Dew Point: 5.4 °C -3.3 °C 0.2 °C
Humidity: 92% 66% 79%
Wind Speed: 8km/h 0km/h 2.4km/h
Wind Gust: 17.7km/h - -
Wind- - NW
Pressure: 1023.6 hPa 1019.2 hPa -
Precipitation: 0.25 mm    
Historical Graphs
 
 
Tabular Data for February 24, 2018
Time Temperature Dew Point Pressure Wind Wind Speed Wind Gust Humidity Rainfall Rate (Hourly) solar
00:00 6.7 °C 5.4 °C 1019.2 hPa WNW 3.2 km/h 3.2 km/h 92% 0 mm 0 W/m2
00:06 6.6 °C 5.4 °C 1019.5 hPa NW 4.8 km/h 9.7 km/h 92% 0 mm 0 W/m2
00:12 6.6 °C 5.4 °C 1019.5 hPa WSW 4.8 km/h 11.3 km/h 92% 0 mm 0 W/m2
00:18 6.5 °C 5.3 °C 1019.5 hPa WNW 4.8 km/h 11.3 km/h 92% 0 mm 0 W/m2
00:24 6.4 °C 5.2 °C 1019.5 hPa WNW 4.8 km/h 4.8 km/h 92% 0 mm 0 W/m2
00:30 6.4 °C 5.2 °C 1019.5 hPa WNW 4.8 km/h 4.8 km/h 92% 0 mm 0 W/m2
00:36 6.3 °C 5.1 °C 1019.5 hPa WNW 3.2 km/h 8 km/h 92% 0 mm 0 W/m2
00:42 6.3 °C 5.1 °C 1019.5 hPa WNW 3.2 km/h 3.2 km/h 92% 0 mm 0 W/m2
00:48 6.3 °C 5.1 °C 1019.5 hPa WNW 3.2 km/h 11.3 km/h 92% 0 mm 0 W/m2
00:54 6.3 °C 5.1 °C 1019.5 hPa West 6.4 km/h 9.7 km/h 92% 0 mm 0 W/m2
01:00 6.3 °C 5.1 °C 1019.5 hPa WNW 8 km/h 9.7 km/h 92% 0 mm 0 W/m2
01:06 6.3 °C 5.1 °C 1019.5 hPa WNW 8 km/h 9.7 km/h 92% 0 mm 0 W/m2
01:12 6.3 °C 4.9 °C 1019.5 hPa WNW 6.4 km/h 8 km/h 91% 0 mm 0 W/m2
01:18 6.3 °C 4.9 °C 1019.9 hPa NNW 6.4 km/h 11.3 km/h 91% 0 mm 0 W/m2
01:24 6.3 °C 4.8 °C 1019.9 hPa WNW 6.4 km/h 6.4 km/h 90% 0 mm 0 W/m2
01:30 6.3 °C 4.8 °C 1019.9 hPa WNW 6.4 km/h 6.4 km/h 90% 0 mm 0 W/m2
01:36 6.3 °C 4.6 °C 1020.2 hPa WNW 6.4 km/h 8 km/h 89% 0 mm 0 W/m2
01:42 6.2 °C 4.6 °C 1020.2 hPa WNW 6.4 km/h 6.4 km/h 89% 0 mm 0 W/m2
01:48 6.2 °C 4.3 °C 1020.2 hPa West 8 km/h 12.9 km/h 88% 0 mm 0 W/m2
01:54 6.1 °C 4.2 °C 1020.2 hPa WNW 6.4 km/h 8 km/h 88% 0 mm 0 W/m2
02:00 6 °C 4 °C 1020.2 hPa WNW 4.8 km/h 4.8 km/h 87% 0 mm 0 W/m2
02:06 5.9 °C 3.9 °C 1020.2 hPa NW 4.8 km/h 8 km/h 87% 0 mm 0 W/m2
02:12 5.9 °C 3.9 °C 1020.2 hPa WNW 4.8 km/h 6.4 km/h 87% 0 mm 0 W/m2
02:20 5.9 °C 3.7 °C 1020.2 hPa WNW 4.8 km/h 4.8 km/h 86% 0 mm 0 W/m2
02:26 5.8 °C 3.7 °C 1020.2 hPa WNW 4.8 km/h 6.4 km/h 86% 0 mm 0 W/m2
02:32 5.8 °C 3.4 °C 1020.2 hPa WNW 4.8 km/h 6.4 km/h 85% 0 mm 0 W/m2
02:38 5.7 °C 3.4 °C 1020.2 hPa WNW 4.8 km/h 9.7 km/h 85% 0 mm 0 W/m2
02:44 5.7 °C 3.3 °C 1020.2 hPa WNW 3.2 km/h 4.8 km/h 85% 0 mm 0 W/m2
02:50 5.6 °C 3.3 °C 1020.2 hPa NW 3.2 km/h 3.2 km/h 85% 0 mm 0 W/m2
02:56 5.6 °C 3.3 °C 1020.2 hPa WNW 3.2 km/h 3.2 km/h 85% 0 mm 0 W/m2
03:02 5.6 °C 3.2 °C 1020.2 hPa NW 3.2 km/h 3.2 km/h 85% 0 mm 0 W/m2
03:10 5.5 °C 3.2 °C 1020.2 hPa NW 1.6 km/h 1.6 km/h 85% 0 mm 0 W/m2
03:16 5.4 °C 3.1 °C 1020.2 hPa NW 1.6 km/h 3.2 km/h 85% 0 mm 0 W/m2
03:22 5.4 °C 2.9 °C 1020.2 hPa NW 1.6 km/h 3.2 km/h 84% 0 mm 0 W/m2
03:28 5.4 °C 2.9 °C 1020.2 hPa NW 1.6 km/h 3.2 km/h 84% 0 mm 0 W/m2
03:34 5.4 °C 3.1 °C 1020.2 hPa NW 1.6 km/h 3.2 km/h 85% 0 mm 0 W/m2
03:40 5.4 °C 3.1 °C 1020.2 hPa NW 1.6 km/h 1.6 km/h 85% 0 mm 0 W/m2
03:46 5.3 °C 3 °C 1020.2 hPa NW 1.6 km/h 3.2 km/h 85% 0 mm 0 W/m2
04:04 5.3 °C 2.8 °C 1020.2 hPa NW 1.6 km/h 1.6 km/h 84% 0 mm 0 W/m2
04:10 5.3 °C 2.8 °C 1020.5 hPa NW 1.6 km/h 1.6 km/h 84% 0 mm 0 W/m2
04:16 5.3 °C 2.8 °C 1020.5 hPa NW 1.6 km/h 1.6 km/h 84% 0 mm 0 W/m2
04:22 5.2 °C 2.7 °C 1020.5 hPa NW 1.6 km/h 1.6 km/h 84% 0 mm 0 W/m2
04:28 5.2 °C 2.7 °C 1020.5 hPa Calm   1.6 km/h 84% 0 mm 0 W/m2
04:34 5.2 °C 2.7 °C 1020.5 hPa Calm   1.6 km/h 84% 0 mm 0 W/m2
04:40 5.2 °C 2.7 °C 1020.9 hPa NW 1.6 km/h 1.6 km/h 84% 0 mm 0 W/m2
04:46 5.2 °C 2.8 °C 1020.9 hPa NW 1.6 km/h 1.6 km/h 85% 0 mm 0 W/m2
04:52 5.2 °C 2.8 °C 1020.9 hPa NW 1.6 km/h 1.6 km/h 85% 0 mm 0 W/m2
04:58 5.1 °C 2.8 °C 1020.9 hPa NW 1.6 km/h 1.6 km/h 85% 0 mm 0 W/m2
05:04 5.2 °C 2.8 °C 1020.9 hPa NW 1.6 km/h 1.6 km/h 85% 0 mm 0 W/m2
05:10 5.2 °C 3 °C 1020.9 hPa NW 3.2 km/h 3.2 km/h 86% 0 mm 0 W/m2
05:16 5.2 °C 3 °C 1021.2 hPa WNW 3.2 km/h 4.8 km/h 86% 0 mm 0 W/m2
05:22 5.2 °C 3.1 °C 1021.2 hPa NW 4.8 km/h 6.4 km/h 86% 0 mm 0 W/m2
05:28 5.2 °C 3 °C 1021.2 hPa NW 6.4 km/h 9.7 km/h 86% 0 mm 0 W/m2
05:34 5.1 °C 2.7 °C 1021.2 hPa WNW 8 km/h 9.7 km/h 85% 0 mm 0 W/m2
05:40 4.9 °C 2.6 °C 1021.2 hPa NW 8 km/h 8 km/h 85% 0 mm 0 W/m2
05:46 4.6 °C 2.1 °C 1021.6 hPa NW 8 km/h 17.7 km/h 84% 0 mm 0 W/m2
05:52 4.4 °C 1.9 °C 1021.6 hPa West 6.4 km/h 6.4 km/h 84% 0 mm 0 W/m2
05:58 4.2 °C 1.8 °C 1021.6 hPa WNW 6.4 km/h 8 km/h 84% 0 mm 0 W/m2
06:04 4.1 °C 1.5 °C 1021.6 hPa NW 6.4 km/h 11.3 km/h 83% 0 mm 0 W/m2
06:10 3.9 °C 1.3 °C 1021.6 hPa NW 4.8 km/h 4.8 km/h 83% 0 mm 0 W/m2
06:16 3.8 °C 1 °C 1021.6 hPa WNW 4.8 km/h 9.7 km/h 82% 0 mm 0 W/m2
06:22 3.7 °C 0.6 °C 1021.9 hPa West 6.4 km/h 12.9 km/h 80% 0 mm 0 W/m2
06:28 3.7 °C 0.3 °C 1022.2 hPa WNW 6.4 km/h 12.9 km/h 79% 0 mm 0 W/m2
06:34 3.7 °C 0.2 °C 1021.9 hPa NNW 4.8 km/h 8 km/h 78% 0 mm 0 W/m2
06:40 3.6 °C 0.1 °C 1022.2 hPa NW 3.2 km/h 3.2 km/h 78% 0 mm 0 W/m2
06:46 3.5 °C -0.2 °C 1022.2 hPa NW 3.2 km/h 4.8 km/h 77% 0 mm 0 W/m2
06:52 3.5 °C 0 °C 1022.2 hPa NW 3.2 km/h 3.2 km/h 78% 0 mm 0 W/m2
06:58 3.4 °C -0.2 °C 1022.2 hPa NW 3.2 km/h 4.8 km/h 77% 0 mm 0 W/m2
07:04 3.4 °C -0.2 °C 1022.2 hPa WNW 4.8 km/h 6.4 km/h 77% 0 mm 5 W/m2
07:10 3.4 °C -0.1 °C 1022.6 hPa WNW 3.2 km/h 3.2 km/h 78% 0 mm 5 W/m2
07:16 3.4 °C -0.1 °C 1022.6 hPa WNW 3.2 km/h 4.8 km/h 78% 0 mm 7 W/m2
07:22 3.4 °C -0.1 °C 1022.6 hPa NW 3.2 km/h 9.7 km/h 78% 0 mm 12 W/m2
07:28 3.3 °C -0.2 °C 1022.6 hPa NW 3.2 km/h 9.7 km/h 78% 0 mm 18 W/m2
07:34 3.3 °C -0.2 °C 1022.6 hPa NW 3.2 km/h 6.4 km/h 78% 0 mm 21 W/m2
07:40 3.3 °C -0.2 °C 1022.9 hPa NW 3.2 km/h 3.2 km/h 78% 0 mm 25 W/m2
07:46 3.3 °C -0.2 °C 1022.9 hPa WNW 3.2 km/h 6.4 km/h 78% 0 mm 33 W/m2
07:52 3.3 °C -0.2 °C 1022.6 hPa WNW 3.2 km/h 4.8 km/h 78% 0 mm 39 W/m2
07:58 3.4 °C -0.1 °C 1022.6 hPa WNW 3.2 km/h 4.8 km/h 78% 0 mm 47 W/m2
08:04 3.4 °C -0.1 °C 1022.6 hPa WNW 3.2 km/h 6.4 km/h 78% 0 mm 56 W/m2
08:10 3.4 °C -0.1 °C 1022.6 hPa West 3.2 km/h 4.8 km/h 78% 0 mm 65 W/m2
08:16 3.4 °C -0.1 °C 1022.6 hPa NW 3.2 km/h 8 km/h 78% 0 mm 72 W/m2
08:22 3.5 °C 0 °C 1022.6 hPa NW 3.2 km/h 4.8 km/h 78% 0 mm 83 W/m2
08:28 3.6 °C 0.1 °C 1022.6 hPa NW 1.6 km/h 4.8 km/h 78% 0 mm 104 W/m2
08:34 3.7 °C 0.2 °C 1022.2 hPa NNW 1.6 km/h 3.2 km/h 78% 0 mm 123 W/m2
08:40 3.8 °C 0.3 °C 1022.2 hPa WNW 1.6 km/h 1.6 km/h 78% 0 mm 192 W/m2
08:46 3.8 °C 0.2 °C 1022.2 hPa NW 3.2 km/h 4.8 km/h 77% 0 mm 107 W/m2
08:52 3.8 °C 0.1 °C 1022.6 hPa WNW 3.2 km/h 4.8 km/h 77% 0 mm 91 W/m2
08:58 3.7 °C 0.1 °C 1022.6 hPa NW 4.8 km/h 6.4 km/h 77% 0 mm 74 W/m2
09:04 3.7 °C 0.1 °C 1022.6 hPa WNW 3.2 km/h 4.8 km/h 77% 0 mm 102 W/m2
09:10 3.8 °C 0.1 °C 1022.9 hPa WNW 3.2 km/h 3.2 km/h 77% 0 mm 125 W/m2
09:16 3.9 °C 0.2 °C 1022.9 hPa NNW 3.2 km/h 3.2 km/h 77% 0 mm 186 W/m2
09:22 4.1 °C 0.4 °C 1022.6 hPa NNW 3.2 km/h 4.8 km/h 77% 0 mm 211 W/m2
09:28 4.1 °C 0.1 °C 1022.6 hPa NNW 6.4 km/h 8 km/h 75% 0 mm 130 W/m2
09:34 4.1 °C 0.1 °C 1022.6 hPa WNW 4.8 km/h 4.8 km/h 75% 0 mm 107 W/m2
09:40 4.1 °C -0.3 °C 1022.9 hPa NNW 3.2 km/h 3.2 km/h 73% 0 mm 130 W/m2
09:46 4.3 °C 0.1 °C 1022.9 hPa NNW 3.2 km/h 3.2 km/h 74% 0 mm 123 W/m2
09:52 4.3 °C -0.3 °C 1022.9 hPa WNW 3.2 km/h 6.4 km/h 72% 0 mm 146 W/m2
09:58 4.3 °C -0.4 °C 1022.9 hPa WNW 3.2 km/h 6.4 km/h 71% 0 mm 167 W/m2
10:04 4.3 °C -0.8 °C 1023.2 hPa NW 4.8 km/h 8 km/h 69% 0 mm 202 W/m2
10:10 4.4 °C -0.8 °C 1023.2 hPa WNW 6.4 km/h 6.4 km/h 69% 0 mm 181 W/m2
10:16 4.5 °C -0.3 °C 1023.2 hPa NW 4.8 km/h 6.4 km/h 71% 0 mm 211 W/m2
10:22 4.7 °C -0.6 °C 1023.2 hPa WNW 3.2 km/h 4.8 km/h 69% 0 mm 179 W/m2
10:28 4.6 °C -0.6 °C 1023.2 hPa WNW 4.8 km/h 6.4 km/h 69% 0 mm 204 W/m2
10:34 4.6 °C -0.4 °C 1023.2 hPa NNW 4.8 km/h 4.8 km/h 70% 0 mm 237 W/m2
10:40 4.6 °C -0.6 °C 1023.2 hPa North 4.8 km/h 6.4 km/h 69% 0 mm 207 W/m2
10:46 4.6 °C -0.7 °C 1023.6 hPa NW 6.4 km/h 8 km/h 69% 0 mm 156 W/m2
10:52 4.4 °C -0.8 °C 1023.6 hPa NNW 6.4 km/h 6.4 km/h 69% 0 mm 179 W/m2
10:58 4.5 °C -0.5 °C 1023.2 hPa NNW 4.8 km/h 6.4 km/h 70% 0 mm 142 W/m2
11:04 4.4 °C -0.6 °C 1023.2 hPa NW 4.8 km/h 6.4 km/h 70% 0 mm 160 W/m2
11:10 4.4 °C -0.6 °C 1023.2 hPa WNW 4.8 km/h 4.8 km/h 70% 0 mm 151 W/m2
11:16 4.4 °C -0.3 °C 1023.2 hPa NW 3.2 km/h 4.8 km/h 71% 0 mm 167 W/m2
11:22 4.4 °C -0.6 °C 1023.2 hPa NNW 3.2 km/h 6.4 km/h 70% 0 mm 200 W/m2
11:28 4.4 °C -0.6 °C 1023.2 hPa North 4.8 km/h 9.7 km/h 70% 0 mm 181 W/m2
11:34 4.5 °C -0.5 °C 1022.9 hPa NNW 4.8 km/h 4.8 km/h 70% 0 mm 190 W/m2
11:40 4.6 °C -0.4 °C 1022.9 hPa NW 4.8 km/h 4.8 km/h 70% 0 mm 216 W/m2
11:46 4.6 °C -0.4 °C 1022.9 hPa NW 4.8 km/h 6.4 km/h 70% 0 mm 269 W/m2
11:52 4.8 °C -0.2 °C 1022.9 hPa WNW 4.8 km/h 4.8 km/h 70% 0 mm 271 W/m2
11:58 4.8 °C -0.4 °C 1022.6 hPa WNW 3.2 km/h 4.8 km/h 69% 0 mm 332 W/m2
12:04 4.9 °C -0.3 °C 1022.9 hPa NNW 4.8 km/h 4.8 km/h 69% 0 mm 288 W/m2
12:10 4.9 °C -0.3 °C 1022.6 hPa NW 4.8 km/h 4.8 km/h 69% 0 mm 292 W/m2
12:16 5.1 °C 0.1 °C 1022.6 hPa NW 3.2 km/h 4.8 km/h 70% 0 mm 230 W/m2
12:22 5.1 °C -0.2 °C 1022.2 hPa NW 1.6 km/h 1.6 km/h 69% 0 mm 211 W/m2
12:28 5 °C -0.2 °C 1021.9 hPa NW 3.2 km/h 8 km/h 69% 0 mm 220 W/m2
12:34 4.9 °C -0.5 °C 1021.9 hPa NW 3.2 km/h 3.2 km/h 68% 0 mm 197 W/m2
12:40 4.9 °C -0.5 °C 1021.9 hPa NW 1.6 km/h 4.8 km/h 68% 0 mm 179 W/m2
12:46 4.9 °C -0.3 °C 1022.2 hPa NW 1.6 km/h 4.8 km/h 69% 0 mm 151 W/m2
12:52 4.8 °C -0.6 °C 1022.2 hPa NNW 3.2 km/h 6.4 km/h 68% 0 mm 141 W/m2
12:58 4.8 °C -0.6 °C 1021.9 hPa North 3.2 km/h 6.4 km/h 68% 0 mm 155 W/m2
13:04 4.8 °C -0.4 °C 1021.9 hPa NNW 3.2 km/h 3.2 km/h 69% 0 mm 155 W/m2
13:10 4.8 °C -0.4 °C 1021.6 hPa NNW 1.6 km/h 3.2 km/h 69% 0 mm 149 W/m2
13:16 4.8 °C -0.4 °C 1021.9 hPa NNW 3.2 km/h 3.2 km/h 69% 0 mm 123 W/m2
13:22 4.7 °C -0.7 °C 1021.9 hPa NNW 3.2 km/h 4.8 km/h 68% 0 mm 139 W/m2
13:28 4.7 °C -0.5 °C 1022.2 hPa WNW 3.2 km/h 9.7 km/h 69% 0 mm 123 W/m2
13:34 4.7 °C -0.6 °C 1021.9 hPa WNW 3.2 km/h 4.8 km/h 69% 0 mm 146 W/m2
13:40 4.7 °C -0.5 °C 1021.9 hPa WNW 3.2 km/h 3.2 km/h 69% 0 mm 127 W/m2
13:46 4.6 °C -0.6 °C 1021.9 hPa WNW 3.2 km/h 4.8 km/h 69% 0 mm 114 W/m2
13:52 4.6 °C -0.8 °C 1021.9 hPa NW 3.2 km/h 4.8 km/h 68% 0 mm 104 W/m2
13:58 4.6 °C -0.7 °C 1021.9 hPa NW 3.2 km/h 6.4 km/h 69% 0 mm 91 W/m2
14:04 4.6 °C -0.7 °C 1021.6 hPa NNW 3.2 km/h 8 km/h 69% 0 mm 84 W/m2
14:10 4.4 °C -0.9 °C 1021.6 hPa NW 3.2 km/h 3.2 km/h 68% 0 mm 98 W/m2
14:16 4.4 °C -0.8 °C 1021.6 hPa NW 1.6 km/h 3.2 km/h 69% 0 mm 116 W/m2
14:22 4.5 °C -0.9 °C 1021.6 hPa NW 1.6 km/h 4.8 km/h 68% 0 mm 139 W/m2
14:28 4.6 °C -0.8 °C 1021.6 hPa NW 1.6 km/h 4.8 km/h 68% 0 mm 146 W/m2
14:34 4.7 °C -0.7 °C 1021.6 hPa Calm   3.2 km/h 68% 0 mm 160 W/m2
14:40 4.8 °C -0.4 °C 1021.6 hPa NW 1.6 km/h 1.6 km/h 69% 0 mm 144 W/m2
14:46 4.8 °C -0.6 °C 1021.6 hPa NW 1.6 km/h 1.6 km/h 68% 0 mm 142 W/m2
14:52 4.8 °C -0.8 °C 1021.9 hPa NW 1.6 km/h 1.6 km/h 67% 0 mm 144 W/m2
14:58 4.8 °C -0.6 °C 1021.9 hPa NW 1.6 km/h 3.2 km/h 68% 0 mm 148 W/m2
15:04 4.7 °C -0.9 °C 1022.2 hPa NW 1.6 km/h 3.2 km/h 67% 0 mm 153 W/m2
15:10 4.8 °C -0.8 °C 1021.9 hPa NW 1.6 km/h 1.6 km/h 67% 0 mm 167 W/m2
15:16 4.7 °C -0.9 °C 1021.9 hPa NW 1.6 km/h 1.6 km/h 67% 0 mm 165 W/m2
15:22 4.8 °C -0.8 °C 1021.9 hPa NW 1.6 km/h 3.2 km/h 67% 0 mm 162 W/m2
15:28 4.8 °C -0.6 °C 1021.9 hPa NW 1.6 km/h 4.8 km/h 68% 0 mm 156 W/m2
15:34 4.8 °C -0.8 °C 1021.9 hPa NW 1.6 km/h 1.6 km/h 67% 0 mm 174 W/m2
15:40 4.8 °C -0.8 °C 1022.2 hPa NW 1.6 km/h 1.6 km/h 67% 0 mm 163 W/m2
15:46 4.9 °C -0.7 °C 1022.2 hPa NW 1.6 km/h 4.8 km/h 67% 0 mm 139 W/m2
15:52 4.8 °C -1 °C 1022.2 hPa Calm   1.6 km/h 66% 0 mm 104 W/m2
15:58 4.8 °C -0.8 °C 1021.9 hPa Calm   3.2 km/h 67% 0 mm 91 W/m2
16:04 4.7 °C -0.9 °C 1021.6 hPa NW 1.6 km/h 1.6 km/h 67% 0 mm 98 W/m2
16:10 4.7 °C -0.7 °C 1021.6 hPa Calm     68% 0 mm 97 W/m2
16:16 4.7 °C -0.7 °C 1021.6 hPa NW 1.6 km/h 1.6 km/h 68% 0 mm 79 W/m2
16:22 4.6 °C -1.1 °C 1021.6 hPa NW 1.6 km/h 1.6 km/h 67% 0 mm 81 W/m2
16:28 4.6 °C -1.1 °C 1021.6 hPa Calm   1.6 km/h 67% 0 mm 77 W/m2
16:34 4.5 °C -0.9 °C 1021.6 hPa Calm   3.2 km/h 68% 0 mm 86 W/m2
16:40 4.4 °C -1.2 °C 1021.6 hPa NW 1.6 km/h 1.6 km/h 67% 0 mm 67 W/m2
16:46 4.4 °C -1.2 °C 1021.6 hPa NW 1.6 km/h 1.6 km/h 67% 0 mm 56 W/m2
16:52 4.3 °C -1.4 °C 1021.6 hPa NW 1.6 km/h 3.2 km/h 66% 0 mm 51 W/m2
16:58 4.3 °C -1.3 °C 1021.6 hPa Calm   3.2 km/h 67% 0 mm 33 W/m2
17:04 4.2 °C -1.4 °C 1021.6 hPa Calm     67% 0 mm 33 W/m2
17:10 4.2 °C -1.2 °C 1021.6 hPa Calm     68% 0 mm 28 W/m2
17:16 4.1 °C -1.5 °C 1021.2 hPa Calm     67% 0 mm 26 W/m2
17:22 4.1 °C -1.1 °C 1021.2 hPa Calm     69% 0 mm 35 W/m2
17:28 3.9 °C -1.1 °C 1020.9 hPa Calm   1.6 km/h 70% 0 mm 28 W/m2
17:34 3.9 °C -1.3 °C 1020.9 hPa Calm     69% 0 mm 28 W/m2
17:40 3.9 °C -1.3 °C 1021.2 hPa Calm     69% 0 mm 9 W/m2
17:46 3.8 °C -1.4 °C 1021.2 hPa Calm     69% 0 mm 0 W/m2
17:52 3.6 °C -1.4 °C 1021.2 hPa Calm     70% 0 mm 0 W/m2
17:58 3.3 °C -1.2 °C 1021.6 hPa Calm     72% 0 mm 0 W/m2
18:04 3.1 °C -1.3 °C 1021.6 hPa Calm     73% 0 mm 0 W/m2
18:10 2.8 °C -1.6 °C 1021.6 hPa Calm     73% 0 mm 0 W/m2
18:16 2.4 °C -1.7 °C 1021.6 hPa Calm     74% 0 mm 0 W/m2
18:22 2.1 °C -2.1 °C 1021.6 hPa Calm     74% 0 mm 0 W/m2
18:28 1.8 °C -2.2 °C 1021.6 hPa Calm     75% 0 mm 0 W/m2
18:34 1.4 °C -2.3 °C 1021.6 hPa Calm     76% 0 mm 0 W/m2
18:40 1.2 °C -2.4 °C 1021.6 hPa Calm     77% 0 mm 0 W/m2
18:46 0.9 °C -2.5 °C 1021.9 hPa Calm     78% 0 mm 0 W/m2
18:52 0.7 °C -2.6 °C 1022.2 hPa Calm     79% 0 mm 0 W/m2
18:58 0.5 °C -2.6 °C 1021.9 hPa Calm     80% 0 mm 0 W/m2
19:04 0.3 °C -2.6 °C 1022.2 hPa Calm     81% 0 mm 0 W/m2
19:10 0.2 °C -2.7 °C 1022.2 hPa Calm     81% 0 mm 0 W/m2
19:16 0.1 °C -2.7 °C 1022.2 hPa Calm     82% 0 mm 0 W/m2
19:22 -0.1 °C -2.8 °C 1022.2 hPa Calm     82% 0 mm 0 W/m2
19:28 -0.3 °C -2.8 °C 1022.2 hPa Calm     83% 0 mm 0 W/m2
19:34 -0.4 °C -2.9 °C 1021.9 hPa Calm     83% 0 mm 0 W/m2
19:40 -0.4 °C -2.8 °C 1022.2 hPa Calm     84% 0 mm 0 W/m2
19:46 -0.5 °C -2.7 °C 1022.2 hPa Calm     85% 0 mm 0 W/m2
19:52 -0.7 °C -2.9 °C 1022.2 hPa Calm     85% 0 mm 0 W/m2
19:56 -0.7 °C -2.9 °C 1022.2 hPa Calm     85% 0 mm 0 W/m2
20:02 -0.8 °C -2.9 °C 1022.6 hPa Calm     86% 0 mm 0 W/m2
20:08 -0.9 °C -3 °C 1022.6 hPa Calm     86% 0 mm 0 W/m2
20:14 -1.1 °C -3.1 °C 1022.2 hPa Calm     86% 0 mm 0 W/m2
20:20 -1.1 °C -3.2 °C 1022.6 hPa Calm     86% 0 mm 0 W/m2
20:26 -1.2 °C -3.3 °C 1022.2 hPa Calm     86% 0 mm 0 W/m2
20:32 -1.1 °C -3 °C 1022.2 hPa Calm     87% 0 mm 0 W/m2
20:38 -0.9 °C -2.8 °C 1022.2 hPa Calm     87% 0 mm 0 W/m2
20:44 -0.8 °C -2.5 °C 1022.2 hPa Calm     88% 0 mm 0 W/m2
20:50 -0.7 °C -2.4 °C 1022.2 hPa Calm     88% 0 mm 0 W/m2
20:56 -0.6 °C -2.3 °C 1022.2 hPa Calm     88% 0 mm 0 W/m2
21:02 -0.6 °C -2.3 °C 1022.2 hPa Calm     88% 0 mm 0 W/m2
21:08 -0.4 °C -2.2 °C 1022.2 hPa Calm     88% 0 mm 0 W/m2
21:14 -0.3 °C -2 °C 1022.2 hPa Calm     88% 0 mm 0 W/m2
21:20 -0.2 °C -1.9 °C 1022.2 hPa Calm     88% 0 mm 0 W/m2
21:26 -0.1 °C -1.7 °C 1022.2 hPa Calm     89% 0 mm 0 W/m2
21:32 -0.1 °C -1.7 °C 1022.2 hPa Calm     89% 0 mm 0 W/m2
21:38 -0.1 °C -1.8 °C 1022.2 hPa Calm     88% 0 mm 0 W/m2
21:44 -0.1 °C -1.7 °C 1022.2 hPa Calm     89% 0 mm 0 W/m2
21:50 -0.1 °C -1.7 °C 1021.9 hPa Calm     89% 0 mm 0 W/m2
21:56 0 °C -1.6 °C 1021.6 hPa Calm   1.6 km/h 89% 0 mm 0 W/m2
22:02 0 °C -1.6 °C 1021.6 hPa Calm     89% 0 mm 0 W/m2
22:08 0.1 °C -1.6 °C 1021.6 hPa Calm     89% 0 mm 0 W/m2
22:14 0.2 °C -1.4 °C 1021.6 hPa Calm     89% 0 mm 0 W/m2
22:20 0.2 °C -1.4 °C 1021.6 hPa Calm   1.6 km/h 89% 0 mm 0 W/m2
22:26 0.3 °C -1.3 °C 1021.6 hPa Calm   1.6 km/h 89% 0 mm 0 W/m2
22:32 0.3 °C -1.3 °C 1021.6 hPa Calm     89% 0 mm 0 W/m2
22:38 0.4 °C -1.4 °C 1021.6 hPa Calm     88% 0 mm 0 W/m2
22:46 0.4 °C -1.3 °C 1021.2 hPa Calm     88% 0 mm 0 W/m2
22:52 0.4 °C -1.3 °C 1020.9 hPa Calm     88% 0 mm 0 W/m2
22:58 0.4 °C -1.3 °C 1020.5 hPa NW 1.6 km/h 3.2 km/h 88% 0 mm 0 W/m2
23:04 0.4 °C -1.3 °C 1020.2 hPa NW 1.6 km/h 4.8 km/h 88% 0 mm 0 W/m2
23:10 0.4 °C -1.4 °C 1020.2 hPa NW 1.6 km/h 1.6 km/h 87% 0 mm 0 W/m2
23:16 0.6 °C -1.3 °C 1020.2 hPa NW 1.6 km/h 1.6 km/h 87% 0 mm 0 W/m2
23:22 0.6 °C -1.3 °C 1020.2 hPa NW 1.6 km/h 1.6 km/h 87% 0 mm 0 W/m2
23:28 0.6 °C -1.3 °C 1020.2 hPa Calm   1.6 km/h 87% 0 mm 0 W/m2
23:34 0.5 °C -1.6 °C 1020.2 hPa Calm   3.2 km/h 86% 0 mm 0 W/m2
23:40 0.5 °C -1.4 °C 1020.2 hPa Calm   3.2 km/h 87% 0 mm 0 W/m2
23:46 0.6 °C -1.5 °C 1020.2 hPa ENE 1.6 km/h 3.2 km/h 86% 0 mm 0 W/m2
23:52 0.6 °C -1.4 °C 1020.2 hPa Calm     86% 0 mm 0 W/m2
23:58 0.7 °C -1.4 °C 1020.2 hPa Calm   3.2 km/h 86% 0 mm 0 W/m2
Country Meadow, Clay, NY, USA
Compliments of Weather Underground - 2 mb